Tracking 32412 objects as of 6-Dec-2025
HD Live streaming from Space Station
objects crossing your sky now

GSAT 30

Track GSAT 30 now!
GSAT 30 is classified as:


NORAD ID: 45026
Int'l Code: 2020-005A
Perigee: 35,784.9 km
Apogee: 35,803.5 km
Inclination: 0.0 °
Period: 1,436.1 minutes
Semi major axis: 42165 km
RCS: Unknown
Launch date: January 16, 2020
Source: India (IND)
Launch site: FRENCH GUIANA (FRGUI)
Your satellite tracking list
Your tracking list is empty




NASA's NSSDC Master Catalog

Two Line Element Set (TLE):
1 45026U 20005A   25339.93864350 -.00000156  00000-0  00000-0 0  9997
2 45026   0.0485 111.2676 0002209 113.6208 271.0441  1.00270110 21570
Source of the keplerian elements: AFSPC